ANGOSAT 1 (43087 NORAD) Tracking and Keplerian Element Data

This shows tracking and keplerian element data for the satellite.

Feedback or suggestion? Click here.




ElementValue
Catalog43087
NameANGOSAT 1
Epoch Orbit27
Epoch Day24.56573759
Epoch Year2018
RAAN100.0869
Inclination0.1149
Eccentricity0.0016697
Argument of Perigee103.7045
Mean Anonmoly89.017
Mean Motion0.99383262
Decay Rate-2.56E-06
L11 43087U 17086A 18024.56573759 -.00000256 00000-0 00000-0 0 9990
L22 43087 0.1149 100.0869 0016697 103.7045 89.0170 0.99383262 278

Live tracking and technical data element details for ANGOSAT 1 (NORAD 43087). ANGOSAT 1 can be tracked NOW for your location showing map with azimuth and elevation plus other details from your city location.

Track the satellite on the map from your city or location and see movement details for azimuth, elevation, latitude, longitude, range, height, and movement on the map or in text.







IsCatalogInMostPopularTable: catalog: 43087, numindb: 155
Update: records affected: 1



GetName: 43087 ANGOSAT 1

Hit Count: updated at: Fri, 17 Aug 2018 13:20:23 GMT